KF4PPJ Weather Reports


time (UTC)temp
F
wind
direction
speed
knots
gust
knots
rain 1hr
in
rain 24hr
in
rain mn
in
humidity
%
barometer
mb
20240614115601 0 207 1.7 6.1 0.00 0.00 0.00 1022.4
20240614115100 0 186 1.7 5.2 0.00 0.00 0.00 1022.4
20240614114558 0 231 1.7 6.1 0.00 0.00 0.00 1022.4
20240614114058 0 199 0.0 1.7 0.00 0.00 0.00 1022.5
20240614113556 0 225 1.7 6.1 0.00 0.00 0.00 1022.5
20240614113056 0 207 0.0 1.7 0.00 0.00 0.00 1022.5
20240614112554 0 197 0.0 2.6 0.00 0.00 0.00 1022.4
20240614112053 0 125 0.9 4.3 0.00 0.00 0.00 1022.6
20240614111552 0 172 0.0 2.6 0.00 0.00 0.00 1022.2
20240614111050 0 175 0.9 0.9 0.00 0.00 0.00 1022.2
20240614110549 0 185 0.9 4.3 0.00 0.00 0.00 1022.1
20240614110048 0 255 0.9 1.7 0.00 0.00 0.00 1022.3
20240614105545 0 154 0.0 0.0 0.00 0.00 0.00 1022.3
20240614105044 0 157 1.7 1.7 0.00 0.00 0.00 1022.2
20240614104542 0 176 0.0 0.0 0.00 0.00 0.00 1022.4
20240614104042 0 185 0.9 0.9 0.00 0.00 0.00 1022.2
20240614103542 0 203 0.0 0.9 0.00 0.00 0.00 1022.0
20240614103041 0 169 0.0 1.7 0.00 0.00 0.00 1022.3
20240614102540 0 192 0.0 2.6 0.00 0.00 0.00 1022.3
20240614102038 0 205 0.0 0.9 0.00 0.00 0.00 1022.3
20240614101536 0 200 0.0 0.0 0.00 0.00 0.00 1022.2
20240614101036 0 180 0.0 0.0 0.00 0.00 0.00 1022.2
20240614100535 0 200 0.0 0.0 0.00 0.00 0.00 1022.2
20240614100034 0 121 0.0 0.0 0.00 0.00 0.00 1022.1
20240614095534 0 162 0.0 0.0 0.00 0.00 0.00 1021.8
20240614095032 0 208 0.0 0.0 0.00 0.00 0.00 1022.2
20240614094531 0 204 0.0 0.0 0.00 0.00 0.00 1022.2
20240614094030 0 88 0.0 0.0 0.00 0.00 0.00 1022.0
20240614093528 0 188 0.0 0.0 0.00 0.00 0.00 1022.0
20240614093025 0 165 0.0 0.0 0.00 0.00 0.00 1022.0
20240614092524 0 178 0.0 0.0 0.00 0.00 0.00 1022.0
20240614092023 0 169 0.0 0.0 0.00 0.00 0.00 1021.9
20240614091523 0 168 0.0 0.0 0.00 0.00 0.00 1022.1
20240614091022 0 178 0.0 0.9 0.00 0.00 0.00 1021.9
20240614090521 0 183 0.0 0.0 0.00 0.00 0.00 1021.8
20240614090019 0 179 0.0 1.7 0.00 0.00 0.00 1021.9
20240614085511 0 175 0.0 0.0 0.00 0.00 0.00 1021.8
20240614085009 0 183 0.0 0.9 0.00 0.00 0.00 1022.0
20240614084508 0 151 0.0 0.0 0.00 0.00 0.00 1021.9
20240614084007 0 177 0.0 0.9 0.00 0.00 0.00 1021.6
20240614083506 0 143 0.0 0.9 0.00 0.00 0.00 1021.6
20240614083005 0 175 0.0 0.0 0.00 0.00 0.00 1021.6
20240614082503 0 169 0.0 0.0 0.00 0.00 0.00 1021.5
20240614082002 0 174 0.0 0.9 0.00 0.00 0.00 1021.4
20240614081501 0 205 0.0 0.9 0.00 0.00 0.00 1021.5
20240614081000 0 171 0.0 0.0 0.00 0.00 0.00 1021.4
20240614080458 0 146 0.0 0.9 0.00 0.00 0.00 1021.5
20240614075958 0 177 0.0 0.9 0.00 0.00 0.00 1021.5
20240614075457 0 140 0.0 0.0 0.00 0.00 0.00 1021.4
20240614074955 0 195 0.0 0.0 0.00 0.00 0.00 1021.3
20240614074453 0 161 0.0 0.0 0.00 0.00 0.00 1021.3
20240614073951 0 175 0.0 0.0 0.00 0.00 0.00 1021.2
20240614073451 0 229 0.0 0.9 0.00 0.00 0.00 1021.2
20240614072949 0 197 0.0 0.0 0.00 0.00 0.00 1021.2
20240614072448 0 200 0.0 0.0 0.00 0.00 0.00 1021.4
20240614071947 0 212 0.0 1.7 0.00 0.00 0.00 1021.5
20240614071446 0 133 0.0 0.9 0.00 0.00 0.00 1021.1
20240614070945 0 157 0.0 0.9 0.00 0.00 0.00 1021.2
20240614070445 0 233 0.9 0.9 0.00 0.00 0.00 1021.1
20240614065943 0 161 0.0 0.9 0.00 0.00 0.00 1021.0
20240614065442 0 198 0.0 1.7 0.00 0.00 0.00 1021.0
20240614064939 0 208 0.9 0.9 0.00 0.00 0.00 1020.9
20240614064438 0 286 2.6 5.2 0.00 0.00 0.00 1020.8
20240614063937 0 206 0.0 1.7 0.00 0.00 0.00 1020.9
20240614063436 0 242 2.6 7.0 0.00 0.00 0.00 1020.7
20240614062936 0 196 0.9 2.6 0.00 0.00 0.00 1020.7
20240614062435 0 264 1.7 7.8 0.00 0.00 0.00 1020.7
20240614061934 0 175 1.7 5.2 0.00 0.00 0.00 1020.5
20240614061433 0 203 1.7 2.6 0.00 0.00 0.00 1020.5
20240614060933 0 210 6.1 7.8 0.00 0.00 0.00 1020.2
20240614060430 0 190 4.3 7.0 0.00 0.00 0.00 1020.4
20240614055928 0 238 3.5 7.0 0.00 0.00 0.00 1020.4
20240614055427 0 243 3.5 6.1 0.00 0.00 0.00 1020.1
20240614054926 0 204 2.6 2.6 0.00 0.00 0.00 1020.0
20240614054424 0 271 3.5 5.2 0.00 0.00 0.00 1019.9
20240614053924 0 155 2.6 2.6 0.00 0.00 0.00 1019.9
20240614053422 0 214 1.7 1.7 0.00 0.00 0.00 1020.1
20240614052921 0 72 0.0 0.0 0.00 0.00 0.00 1019.9
20240614052420 0 200 0.0 0.0 0.00 0.00 0.00 1019.9
20240614051918 0 184 0.0 0.0 0.00 0.00 0.00 1020.0
20240614051418 0 204 0.0 0.0 0.00 0.00 0.00 1019.9
20240614050916 0 223 0.0 0.9 0.00 0.00 0.00 1019.9
20240614050415 0 210 0.0 0.9 0.00 0.00 0.00 1019.7
20240614045914 0 307 0.0 0.9 0.00 0.00 0.00 1019.6
20240614045413 0 71 0.9 1.7 0.00 0.00 0.00 1019.8
20240614044911 0 214 0.0 1.7 0.00 0.00 0.00 1019.7
20240614044410 0 158 0.0 0.0 0.00 0.00 0.00 1019.6
20240614043908 0 227 0.0 0.9 0.00 0.00 0.00 1019.5
20240614043407 0 206 0.0 0.9 0.00 0.00 0.00 1019.3
20240614042906 0 188 0.0 0.0 0.00 0.00 0.00 1019.4
20240614042404 0 183 0.0 0.9 0.00 0.00 0.00 1019.3
20240614041903 0 163 0.0 0.0 0.00 0.00 0.00 1019.2
20240614041400 0 131 0.9 0.9 0.00 0.00 0.00 1018.9
20240614040858 0 191 0.0 0.0 0.00 0.00 0.00 1019.0
20240614040358 0 133 0.0 0.9 0.00 0.00 0.00 1018.8
20240614035856 0 177 0.0 0.0 0.00 0.00 0.00 1019.2
20240614035356 0 165 0.0 0.0 0.00 0.00 0.00 1018.9
20240614034855 0 167 0.0 0.0 0.00 0.00 0.00 1018.8
20240614034353 0 165 0.0 0.0 0.00 0.00 0.00 1018.9
20240614033852 0 196 0.0 0.0 0.00 0.00 0.00 1019.0
20240614033351 0 204 0.0 0.0 0.00 0.00 0.00 1018.8
20240614032850 0 224 0.9 1.7 0.00 0.00 0.00 1019.0
20240614032348 0 219 1.7 1.7 0.00 0.00 0.00 1018.9
20240614031847 0 220 0.9 1.7 0.00 0.00 0.00 1018.8
20240614031346 0 207 0.9 0.9 0.00 0.00 0.00 1018.9
20240614030845 0 196 0.9 0.9 0.00 0.00 0.00 1018.8
20240614030342 0 216 0.9 1.7 0.00 0.00 0.00 1019.0
20240614025841 0 265 1.7 1.7 0.00 0.00 0.00 1018.8
20240614025339 0 216 1.7 2.6 0.00 0.00 0.00 1018.8
20240614024838 0 215 1.7 2.6 0.00 0.00 0.00 1018.8
20240614024337 0 214 2.6 2.6 0.00 0.00 0.00 1018.7
20240614023836 0 218 1.7 2.6 0.00 0.00 0.00 1019.0
20240614023335 0 217 0.9 1.7 0.00 0.00 0.00 1019.0
20240614022834 0 211 0.9 1.7 0.00 0.00 0.00 1018.6
20240614022332 0 234 1.7 2.6 0.00 0.00 0.00 1018.8
20240614021832 0 239 1.7 2.6 0.00 0.00 0.00 1018.8
20240614021332 0 211 0.9 1.7 0.00 0.00 0.00 1018.7
20240614020830 0 235 0.9 1.7 0.00 0.00 0.00 1018.9
20240614020328 0 262 1.7 1.7 0.00 0.00 0.00 1019.0
20240614015826 0 249 1.7 2.6 0.00 0.00 0.00 1018.7
20240614015325 0 220 1.7 1.7 0.00 0.00 0.00 1018.7
20240614014824 0 226 2.6 2.6 0.00 0.00 0.00 1019.0
20240614014322 0 210 1.7 2.6 0.00 0.00 0.00 1018.8
20240614013821 0 195 0.0 1.7 0.00 0.00 0.00 1018.6
20240614013318 0 220 1.7 4.3 0.00 0.00 0.00 1018.5
20240614012817 0 200 2.6 2.6 0.00 0.00 0.00 1018.6
20240614012316 0 192 0.0 2.6 0.00 0.00 0.00 1018.7
20240614011816 0 299 1.7 4.3 0.00 0.00 0.00 1018.7
20240614011314 0 290 3.5 4.3 0.00 0.00 0.00 1018.5
20240614010813 0 209 0.9 2.6 0.00 0.00 0.00 1018.6
20240614010313 0 198 0.9 1.7 0.00 0.00 0.00 1018.8
20240614005813 0 282 2.6 2.6 0.00 0.00 0.00 1018.8
20240614005310 0 230 1.7 1.7 0.00 0.00 0.00 1018.6
20240614004810 0 285 1.7 2.6 0.00 0.00 0.00 1018.7
20240614004308 0 236 3.5 4.3 0.00 0.00 0.00 1018.6
20240614003806 0 278 2.6 2.6 0.00 0.00 0.00 1018.7
20240614003305 0 208 2.6 2.6 0.00 0.00 0.00 1018.9
20240614002802 0 222 0.9 2.6 0.00 0.00 0.00 1018.6
20240614002300 0 213 0.0 1.7 0.00 0.00 0.00 1018.9
20240614001759 67 216 0.0 2.6 0.00 0.00 0.00 51 1018.9
20240614001258 67 274 0.9 1.7 0.00 0.00 0.00 51 1018.6
20240614000756 0 203 1.7 2.6 0.00 0.00 0.00 1018.9
20240614000256 0 215 0.0 2.6 0.00 0.00 0.00 1018.8
20240613235755 0 182 0.9 2.6 0.00 0.00 0.00 1018.8
20240613235253 0 259 1.7 2.6 0.00 0.00 0.00 1019.1
20240613234753 67 235 2.6 4.3 0.00 0.00 0.00 50 1018.8
20240613234253 66 228 1.7 2.6 0.00 0.00 0.00 51 1019.0
20240613233751 66 214 2.6 5.2 0.00 0.00 0.00 51 1019.1
20240613233249 66 193 2.6 2.6 0.00 0.00 0.00 51 1018.9
20240613232748 66 240 2.6 5.2 0.00 0.00 0.00 50 1018.9
20240613232246 65 267 1.7 5.2 0.00 0.00 0.00 52 1019.0
20240613231745 65 237 0.9 2.6 0.00 0.00 0.00 54 1019.0
20240613231242 65 247 2.6 4.3 0.00 0.00 0.00 54 1019.0
20240613230741 64 233 0.9 2.6 0.00 0.00 0.00 57 1018.9
20240613230240 64 210 0.9 2.6 0.00 0.00 0.00 58 1019.0
20240613225737 64 213 1.7 4.3 0.00 0.00 0.00 58 1019.0
20240613225235 64 251 1.7 2.6 0.00 0.00 0.00 60 1019.2
20240613224728 63 240 3.5 5.2 0.00 0.00 0.00 59 1019.1
20240613224220 63 245 4.3 6.1 0.00 0.00 0.00 59 1019.0
20240613223719 63 202 2.6 4.3 0.00 0.00 0.00 60 1019.2
20240613223218 62 238 2.6 4.3 0.00 0.00 0.00 62 1019.1
20240613222717 64 213 3.5 5.2 0.00 0.00 0.00 59 1019.1
20240613222217 64 231 2.6 2.6 0.00 0.00 0.00 59 1019.1
20240613221717 64 270 4.3 5.2 0.00 0.00 0.00 57 1018.9
20240613221214 63 217 2.6 4.3 0.00 0.00 0.00 57 1019.0
20240613220713 63 211 4.3 6.1 0.00 0.00 0.00 58 1019.1
20240613220212 64 251 4.3 5.2 0.00 0.00 0.00 58 1019.1
20240613215709 66 212 3.5 6.1 0.00 0.00 0.00 55 1019.1
20240613215207 69 301 2.6 4.3 0.00 0.00 0.00 45 1019.0
20240613214706 69 143 0.9 1.7 0.00 0.00 0.00 45 1019.2
20240613214205 68 290 0.9 0.9 0.00 0.00 0.00 47 1019.0
20240613213703 67 260 2.6 5.2 0.00 0.00 0.00 49 1019.5
20240613213202 66 250 2.6 5.2 0.00 0.00 0.00 50 1019.4
20240613212702 67 314 1.7 2.6 0.00 0.00 0.00 50 1019.4
20240613212200 67 320 1.7 4.3 0.00 0.00 0.00 50 1019.5
20240613211700 66 34 0.9 0.9 0.00 0.00 0.00 52 1019.7
20240613211158 66 226 2.6 4.3 0.00 0.00 0.00 52 1019.7
20240613210657 66 14 1.7 4.3 0.00 0.00 0.00 51 1019.6
20240613210156 66 306 2.6 4.3 0.00 0.00 0.00 51 1019.8
20240613205654 65 185 0.9 1.7 0.00 0.00 0.00 51 1019.8
20240613205154 64 323 0.9 2.6 0.00 0.00 0.00 53 1019.8
20240613204652 65 61 1.7 1.7 0.00 0.00 0.00 53 1019.7
20240613204151 65 264 1.7 2.6 0.00 0.00 0.00 54 1019.7
20240613203650 65 197 1.7 2.6 0.00 0.00 0.00 54 1019.9
20240613203150 66 5 2.6 5.2 0.00 0.00 0.00 54 1019.8
20240613202649 65 223 1.7 2.6 0.00 0.00 0.00 53 1019.8
20240613202148 65 251 1.7 2.6 0.00 0.00 0.00 54 1019.9
20240613201646 65 301 3.5 5.2 0.00 0.00 0.00 55 1019.7
20240613201144 64 291 3.5 5.2 0.00 0.00 0.00 55 1019.8
20240613200643 64 220 2.6 7.0 0.00 0.00 0.00 55 1020.0
20240613200142 65 31 1.7 4.3 0.00 0.00 0.00 55 1020.0
20240613195640 64 300 2.6 5.2 0.00 0.00 0.00 57 1020.1
20240613195139 64 185 0.9 2.6 0.00 0.00 0.00 57 1020.1
20240613194638 64 209 0.0 5.2 0.00 0.00 0.00 58 1020.3
20240613194136 63 267 2.6 7.8 0.00 0.00 0.00 59 1020.2
20240613193635 0 241 2.6 2.6 0.00 0.00 0.00 1020.3
20240613193135 0 270 4.3 6.1 0.00 0.00 0.00 1020.4
20240613192633 0 224 0.9 8.7 0.00 0.00 0.00 1020.2
20240613192132 0 233 3.5 5.2 0.00 0.00 0.00 1020.3
20240613191630 0 190 0.9 4.3 0.00 0.00 0.00 1020.3
20240613191130 0 215 4.3 7.0 0.00 0.00 0.00 1020.4
20240613190629 0 300 3.5 6.1 0.00 0.00 0.00 1020.3
20240613190127 0 210 2.6 2.6 0.00 0.00 0.00 1020.4
20240613185627 68 307 4.3 6.1 0.00 0.00 0.00 61 1020.7
20240613185126 0 292 2.6 7.8 0.00 0.00 0.00 1020.5
20240613184625 0 300 2.6 5.2 0.00 0.00 0.00 1020.7
20240613184123 0 281 4.3 6.1 0.00 0.00 0.00 1020.5
20240613183622 0 169 3.5 4.3 0.00 0.00 0.00 1020.3
20240613183121 0 316 4.3 5.2 0.00 0.00 0.00 1020.6
20240613182619 0 261 3.5 7.0 0.00 0.00 0.00 1020.5
20240613182119 0 205 0.9 2.6 0.00 0.00 0.00 1020.6
20240613181618 0 239 7.8 12.2 0.00 0.00 0.00 1020.6
20240613181117 0 309 10.4 13.0 0.00 0.00 0.00 1020.6
20240613180617 0 300 3.5 5.2 0.00 0.00 0.00 1020.6
20240613180115 0 287 5.2 9.6 0.00 0.00 0.00 1020.7
20240613175614 0 159 1.7 4.3 0.00 0.00 0.00 1020.8
20240613175112 0 191 9.6 12.2 0.00 0.00 0.00 1020.9
20240613174611 0 266 7.0 7.8 0.00 0.00 0.00 1020.8
20240613174110 0 199 1.7 2.6 0.00 0.00 0.00 1020.7
20240613173609 0 198 1.7 1.7 0.00 0.00 0.00 1021.0
20240613173108 0 220 0.9 4.3 0.00 0.00 0.00 1021.0
20240613172607 0 228 2.6 7.0 0.00 0.00 0.00 1021.0
20240613172105 0 168 0.9 1.7 0.00 0.00 0.00 1021.1
20240613171604 0 308 4.3 6.1 0.00 0.00 0.00 1021.1
20240613171103 0 153 0.0 1.7 0.00 0.00 0.00 1021.3
20240613170601 0 260 3.5 6.1 0.00 0.00 0.00 1021.3
20240613170100 0 337 3.5 5.2 0.00 0.00 0.00 1021.3
20240613165559 0 356 1.7 4.3 0.00 0.00 0.00 1021.4
20240613165058 0 306 4.3 6.1 0.00 0.00 0.00 1021.6
20240613164557 0 275 4.3 7.8 0.00 0.00 0.00 1021.4
20240613164056 0 316 4.3 7.8 0.00 0.00 0.00 1021.4
20240613163555 0 279 1.7 7.8 0.00 0.00 0.00 1021.6
20240613163053 0 338 2.6 4.3 0.00 0.00 0.00 1021.5
20240613162546 0 38 4.3 7.8 0.00 0.00 0.00 1021.2
20240613162045 0 291 1.7 1.7 0.00 0.00 0.00 1021.3
20240613161544 0 225 1.7 7.0 0.00 0.00 0.00 1021.3
20240613161044 0 125 0.0 1.7 0.00 0.00 0.00 1021.5
20240613160543 0 213 0.9 2.6 0.00 0.00 0.00 1021.4
20240613160041 0 119 0.0 2.6 0.00 0.00 0.00 1021.4
20240613155540 0 332 1.7 2.6 0.00 0.00 0.00 1021.3
20240613155039 0 219 1.7 1.7 0.00 0.00 0.00 1021.1
20240613154538 0 137 0.9 2.6 0.00 0.00 0.00 1021.2
20240613154036 0 276 1.7 5.2 0.00 0.00 0.00 1021.2
20240613153532 0 74 0.9 5.2 0.00 0.00 0.00 1021.3
20240613153032 0 91 0.9 0.9 0.00 0.00 0.00 1021.5
20240613152529 0 66 0.9 1.7 0.00 0.00 0.00 1021.4
20240613152029 0 226 1.7 2.6 0.00 0.00 0.00 1021.5
20240613151527 0 199 0.0 0.9 0.00 0.00 0.00 1021.7
20240613151026 0 237 0.9 2.6 0.00 0.00 0.00 1021.5
20240613150524 0 332 1.7 2.6 0.00 0.00 0.00 1021.5
20240613150024 0 273 2.6 2.6 0.00 0.00 0.00 1021.7
20240613145523 0 200 0.9 4.3 0.00 0.00 0.00 1021.8
20240613145023 0 92 0.9 2.6 0.00 0.00 0.00 1021.5
20240613144522 0 188 0.0 1.7 0.00 0.00 0.00 1021.8
20240613144021 0 84 0.0 1.7 0.00 0.00 0.00 1021.6
20240613143520 0 197 0.9 1.7 0.00 0.00 0.00 1021.6
20240613143019 0 195 0.0 0.0 0.00 0.00 0.00 1021.7
20240613142517 0 195 0.0 0.9 0.00 0.00 0.00 1021.6
20240613142018 0 185 0.0 0.9 0.00 0.00 0.00 1021.5
20240613141515 0 193 0.0 1.7 0.00 0.00 0.00 1021.5
20240613141014 0 163 0.9 1.7 0.00 0.00 0.00 1021.5
20240613140513 0 185 0.0 2.6 0.00 0.00 0.00 1021.3
20240613140012 0 173 0.9 0.9 0.00 0.00 0.00 1021.5
20240613135510 0 187 0.0 0.9 0.00 0.00 0.00 1021.4
20240613135010 0 135 1.7 2.6 0.00 0.00 0.00 1021.7
20240613134508 0 84 0.9 0.9 0.00 0.00 0.00 1021.7
20240613134007 0 173 0.0 0.0 0.00 0.00 0.00 1021.8
20240613133504 0 184 0.0 0.0 0.00 0.00 0.00 1021.6
20240613133002 0 169 0.0 0.0 0.00 0.00 0.00 1021.7
20240613132500 0 165 0.0 0.0 0.00 0.00 0.00 1021.6
20240613131959 0 177 0.0 0.0 0.00 0.00 0.00 1021.7
20240613131457 0 173 0.0 0.0 0.00 0.00 0.00 1021.6
20240613130956 0 181 0.0 0.0 0.00 0.00 0.00 1021.7
20240613130456 0 181 0.0 0.0 0.00 0.00 0.00 1021.8
20240613125957 0 183 0.0 0.0 0.00 0.00 0.00 1021.6
20240613125456 0 174 0.0 0.0 0.00 0.00 0.00 1021.6
20240613124954 0 167 0.0 0.0 0.00 0.00 0.00 1021.7
20240613124454 0 180 0.0 0.0 0.00 0.00 0.00 1021.6
20240613123953 0 180 0.0 0.0 0.00 0.00 0.00 1021.8
20240613123452 0 173 0.0 0.0 0.00 0.00 0.00 1021.7
20240613122951 0 183 0.0 0.0 0.00 0.00 0.00 1021.7
20240613122449 0 177 0.0 0.0 0.00 0.00 0.00 1021.5
20240613121947 0 174 0.0 0.0 0.00 0.00 0.00 1021.5
20240613121445 0 181 0.0 0.0 0.00 0.00 0.00 1021.7
20240613120944 0 176 0.0 0.0 0.00 0.00 0.00 1021.6
20240613120443 0 173 0.0 0.0 0.00 0.00 0.00 1021.5
20240613115943 0 187 0.0 0.0 0.00 0.00 0.00 1021.6